Regional Weather Roundup
Issued by NWS

Home | Current Version | Previous Version | Text Only | Print | Product List | Glossary Off
Versions: 1 2 3 4 5 6 7 8 9 10 11 12 13 14 15 16 17 18 19 20 21 22 23 24 25 26 27 28 29 30 31 32 33 34 35 36 37 38 39 40 41 42 43 44 45 46 47 48 49 50

000
ASUS43 KDMX 181307
RWRIA

WEATHER ROUNDUP FOR IOWA
NATIONAL WEATHER SERVICE DES MOINES IA
800 AM CDT THU SEP 18 2014

NOTE: "FAIR" INDICATES FEW OR NO CLOUDS BELOW 12,000 FEET WITH NO
SIGNIFICANT WEATHER AND/OR OBSTRUCTIONS TO VISIBILITY.

* - THESE STATIONS ARE NOT NWS STATIONS...THUS NOT UNDER NWS
QUALITY CONTROL.  THEY ALSO DO NOT REPORT WEATHER SUCH
AS PRECIPITATION OR FOG.

IAZ001>003-012>014-020>022-031>034-043>046-181400-
   NORTHWEST IOWA

CITY           SKY/WX    TMP DP  RH WIND       PRES   REMARKS
CARROLL *      FOG       54  54 100 SE5       30.05S VSB 0
CHEROKEE *     CLEAR     52  52 100 E3        30.04R FOG
DENISON *      FOG       57  57 100 CALM      30.03R VSB 0
LE MARS *      CLEAR     57  55  94 CALM      30.02S
ORANGE CITY *  CLEAR     57  54  88 E5        30.03S
SHELDON *      CLOUDY    54  52  94 E6        30.03R
SIOUX CITY     CLEAR     57  55  93 SE6       30.02R
SPENCER        CLEAR     50  49  96 SE5       30.05R FOG
STORM LAKE *   FOG       52  52 100 SE5       30.05R VSB 0
$$

IAZ055>058-069>071-079>083-090>094-181400-
   SOUTHWEST IOWA

CITY           SKY/WX    TMP DP  RH WIND       PRES   REMARKS
ATLANTIC *     CLOUDY    59  59 100 CALM      30.05R
AUDUBON *      HAZE      55  52  88 CALM      30.06R VSB 0
CLARINDA *     MOCLDY    61  61 100 E5        30.06R FOG
COUNCIL BLFS * CLOUDY    59  59 100 SE9G15    30.02S FOG
CRESTON *      FOG       57  57 100 SE6       30.07R VSB 0
HARLAN  *      FOG       57  57 100 SE6G12    30.08R VSB 3/4
LAMONI         FOG       55  55 100 E5        30.06R VSB 1/4
SHENANDOAH *   CLOUDY    63  61  94 E5        30.05R FOG
$$

IAZ047>049-059>061-072>074-084-181400-
   CENTRAL IOWA

CITY           SKY/WX    TMP DP  RH WIND       PRES   REMARKS
AMES           CLOUDY    50  50 100 CALM      30.07R FOG
ANKENY *       CLOUDY    52  52 100 CALM      30.07R FOG
CHARITON *     FOG       52  52 100 CALM      30.07R VSB 0
DES MOINES     FOG       56  55  97 S7        30.07R VSB 1/8
GRINNELL*        N/A     50  48  93 CALM      30.09R FOG
KNOXVILLE *    FOG       54  52  94 VRB3      30.06R VSB 0
MARSHALLTOWN   SUNNY     50  50 100 CALM      30.07R FOG
PELLA *        FOG       54  54 100 SE3       30.09R VSB 1
PERRY *        FOG       54  54 100 CALM      30.07R VSB 1/4
$$

IAZ004>006-015-016-023>025-035-036-181400-
   NORTH CENTRAL IOWA

CITY           SKY/WX    TMP DP  RH WIND       PRES   REMARKS
ALGONA *       SUNNY     55  54  94 SE7       30.07R FOG
CLARION *        N/A     54  54 100 SE6       30.07S
ESTHERVILLE    CLEAR     47  47 100 S5        30.06R FOG
FORT DODGE *   MOSUNNY   50  48  93 CALM      30.08R
MASON CITY     SUNNY     47  47 100 S3        30.10R FOG
FOREST CITY *  SUNNY     50  50 100 CALM      30.08R
IOWA FALLS *   FOG       48  46  93 CALM      30.10R VSB<1/4
$$

IAZ007>011-017>019-026>030-037>042-050>054-066-181400-
   NORTHEAST IOWA

CITY           SKY/WX    TMP DP  RH WIND       PRES   REMARKS
CEDAR RAPIDS   SUNNY     51  50  96 E5        30.09R FOG
CHARLES CITY * SUNNY     50  50 100 CALM      30.10R
CLINTON *      CLOUDY    48  46  93 E3        30.13R VSB 1/2
DECORAH *      SUNNY     48  48 100 CALM      30.10R
DUBUQUE        SUNNY     54  52  93 CALM      30.11R FOG
MONTICELLO *   MOSUNNY   46  46 100 CALM      30.11R
OELWEIN *      SUNNY     50  50 100 E5        30.10R FOG
WATERLOO       SUNNY     48  46  93 CALM      30.08R FOG
$$

IAZ064-065-067-068-078-181400-
   EAST CENTRAL IOWA

CITY           SKY/WX    TMP DP  RH WIND       PRES   REMARKS
DAVENPORT      SUNNY     52  49  89 CALM      30.11R FOG
IOWA CITY      SUNNY     51  50  96 CALM      30.11R
MT. PLEASANT * SUNNY     52  50  93 CALM      30.09R FOG
MUSCATINE *    FOG       50  48  93 CALM      30.11R VSB 0
QUAD CITIES    SUNNY     50  48  93 CALM      30.10R FOG
$$

IAZ062-063-075>077-085>089-095>099-181400-
   SOUTHEAST IOWA

CITY           SKY/WX    TMP DP  RH WIND       PRES   REMARKS
BURLINGTON     SUNNY     55  52  89 E5        30.08R
FAIRFIELD *    SUNNY     52  50  93 E3        30.08R FOG
FORT MADISON * FOG       54  54 100 CALM      30.08R VSB 1/4
KEOKUK *       FOG       50  50 100 CALM      30.07R VSB 0
OSKALOOSA *      N/A     48  48 100 E3        30.08R FOG
CENTERVILLE *  FOG       50  50 100 E3        30.08R VSB 1/4
OTTUMWA        MOSUNNY   50  50 100 CALM      30.08R FOG
WASHINGTON *   FOG       48  48 100 NE5       30.09R VSB 0
$$

ABBREVIATIONS USED IN REMARKS
   TC - TEMPERATURES IN CELSIUS
  WCI - WIND CHILL INDEX
   HX - HEAT INDEX
  VSB - VISIBILITY
$$



USA.gov is the U.S. government's official web portal to all federal, state and local government web resources and services.